AJT1478 KJQF-KHXD

Flight info

Callsign AJT1478
Flight time 0h 41m
Altitude 28000
Route KER4 HAMLN CAE ALD SAV
Aircraft B722/M-SDFGHRWY/W

Departure

Time 2026-04-30 01:26
Airport Concord-Padgett Regional Airport (KJQF)

Arrival

Time 2026-04-30 02:07
Airport Hilton Head Airport (KHXD)
Time Latitude Longitude Altitude Speed Heading
2026-04-30 00:57 35.38810 -80.71097 689 ft 0 kts 278°
2026-04-30 01:21 35.38813 -80.71111 689 ft 2 kts 273°
2026-04-30 01:21 35.38798 -80.71139 688 ft 10 kts 223°
2026-04-30 01:21 35.38737 -80.71145 686 ft 10 kts 124°
2026-04-30 01:21 35.38731 -80.71083 686 ft 4 kts 49°
2026-04-30 01:22 35.38791 -80.71047 688 ft 15 kts 14°
2026-04-30 01:22 35.38914 -80.71021 688 ft 19 kts 10°
2026-04-30 01:22 35.39049 -80.70995 692 ft 20 kts
2026-04-30 01:22 35.39191 -80.70964 698 ft 21 kts 11°
2026-04-30 01:23 35.39335 -80.70930 700 ft 21 kts 11°
2026-04-30 01:23 35.39477 -80.70896 713 ft 21 kts 11°
2026-04-30 01:23 35.39617 -80.70865 717 ft 20 kts
2026-04-30 01:23 35.39727 -80.70839 720 ft 4 kts 12°
2026-04-30 01:24 35.39761 -80.70828 720 ft 5 kts 22°
2026-04-30 01:24 35.39783 -80.70775 723 ft 12 kts 92°
2026-04-30 01:24 35.39743 -80.70699 722 ft 9 kts 178°
2026-04-30 01:24 35.39678 -80.70709 717 ft 0 kts 192°
2026-04-30 01:25 35.39635 -80.70721 716 ft 23 kts 192°
2026-04-30 01:25 35.39240 -80.70810 700 ft 89 kts 190°
2026-04-30 01:25 35.38449 -80.70989 678 ft 139 kts 190°
2026-04-30 01:25 35.37407 -80.71223 849 ft 160 kts 190°
2026-04-30 01:26 35.36307 -80.71429 1378 ft 156 kts 188°
2026-04-30 01:26 35.35227 -80.71583 1796 ft 162 kts 188°
2026-04-30 01:26 35.34042 -80.71719 2043 ft 181 kts 189°
2026-04-30 01:26 35.32711 -80.71883 2187 ft 202 kts 191°
2026-04-30 01:27 35.31356 -80.72471 2352 ft 210 kts 215°
2026-04-30 01:27 35.30106 -80.73457 2767 ft 223 kts 217°
2026-04-30 01:27 35.28731 -80.74552 3306 ft 240 kts 217°
2026-04-30 01:27 35.27276 -80.75720 4004 ft 271 kts 217°
2026-04-30 01:28 35.25548 -80.77142 4036 ft 326 kts 217°
2026-04-30 01:28 35.23660 -80.78713 4640 ft 307 kts 217°
2026-04-30 01:28 35.21989 -80.80082 5008 ft 282 kts 217°
2026-04-30 01:28 35.20429 -80.81348 5191 ft 256 kts 217°
2026-04-30 01:29 35.19013 -80.82482 5458 ft 235 kts 217°
2026-04-30 01:29 35.17645 -80.83570 5799 ft 234 kts 217°
2026-04-30 01:29 35.16276 -80.84658 6166 ft 236 kts 217°
2026-04-30 01:29 35.14913 -80.85737 6803 ft 233 kts 217°
2026-04-30 01:30 35.13533 -80.86806 7476 ft 236 kts 217°
2026-04-30 01:30 35.12148 -80.87876 8262 ft 236 kts 217°
2026-04-30 01:30 35.10761 -80.88930 9090 ft 238 kts 217°
2026-04-30 01:30 35.09326 -80.90008 9955 ft 240 kts 217°
2026-04-30 01:31 35.07870 -80.91047 10704 ft 249 kts 208°
2026-04-30 01:31 35.06137 -80.91456 11486 ft 261 kts 188°
2026-04-30 01:31 35.04305 -80.91407 12240 ft 271 kts 182°
2026-04-30 01:31 35.02395 -80.91229 12947 ft 282 kts 181°
2026-04-30 01:32 35.00399 -80.90979 13606 ft 295 kts 179°
2026-04-30 01:32 34.98317 -80.90647 14208 ft 308 kts 177°
2026-04-30 01:32 34.96158 -80.90247 14812 ft 319 kts 176°
2026-04-30 01:32 34.93927 -80.89798 15433 ft 331 kts 176°
2026-04-30 01:33 34.91617 -80.89314 15964 ft 346 kts 176°
2026-04-30 01:33 34.89144 -80.88795 15978 ft 376 kts 175°
2026-04-30 01:33 34.86573 -80.88242 16549 ft 377 kts 175°
2026-04-30 01:33 34.83983 -80.87677 17073 ft 380 kts 175°
2026-04-30 01:34 34.81370 -80.87108 17543 ft 383 kts 175°
2026-04-30 01:34 34.78739 -80.86540 17957 ft 385 kts 175°
2026-04-30 01:34 34.76093 -80.85973 18302 ft 387 kts 175°
2026-04-30 01:34 34.73442 -80.85407 18565 ft 389 kts 175°
2026-04-30 01:35 34.70772 -80.84839 18789 ft 390 kts 175°
2026-04-30 01:35 34.68093 -80.84269 18957 ft 392 kts 175°
2026-04-30 01:35 34.65375 -80.83692 19508 ft 396 kts 176°
2026-04-30 01:35 34.62665 -80.83115 20295 ft 398 kts 176°
2026-04-30 01:36 34.59910 -80.82531 20908 ft 404 kts 176°
2026-04-30 01:36 34.57129 -80.81943 21559 ft 408 kts 176°
2026-04-30 01:36 34.54315 -80.81347 22179 ft 413 kts 176°
2026-04-30 01:36 34.51468 -80.80744 22792 ft 418 kts 176°
2026-04-30 01:37 34.48587 -80.80133 23405 ft 422 kts 176°
2026-04-30 01:37 34.45686 -80.79518 23923 ft 425 kts 176°
2026-04-30 01:37 34.42752 -80.78894 24446 ft 428 kts 176°
2026-04-30 01:37 34.39807 -80.78270 24960 ft 431 kts 177°
2026-04-30 01:38 34.36846 -80.77645 25459 ft 433 kts 177°
2026-04-30 01:38 34.33870 -80.77016 25957 ft 436 kts 177°
2026-04-30 01:38 34.30870 -80.76383 26432 ft 439 kts 177°
2026-04-30 01:38 34.27852 -80.75747 26880 ft 442 kts 178°
2026-04-30 01:39 34.24798 -80.75104 27322 ft 445 kts 178°
2026-04-30 01:39 34.21743 -80.74627 27709 ft 437 kts 189°
2026-04-30 01:39 34.18831 -80.75314 27842 ft 422 kts 211°
2026-04-30 01:39 34.16290 -80.77052 27863 ft 423 kts 221°
2026-04-30 01:40 34.13949 -80.79159 27861 ft 413 kts 226°
2026-04-30 01:40 34.11734 -80.81367 27847 ft 415 kts 227°
2026-04-30 01:40 34.09509 -80.83612 27853 ft 418 kts 227°
2026-04-30 01:40 34.07245 -80.85826 27882 ft 420 kts 226°
2026-04-30 01:41 34.04939 -80.87993 27883 ft 421 kts 225°
2026-04-30 01:41 34.02606 -80.90126 27889 ft 421 kts 225°
2026-04-30 01:41 34.00263 -80.92236 27881 ft 419 kts 225°
2026-04-30 01:41 33.97931 -80.94330 27882 ft 418 kts 225°
2026-04-30 01:42 33.95603 -80.96428 27881 ft 418 kts 225°
2026-04-30 01:42 33.93312 -80.98503 27884 ft 418 kts 225°
2026-04-30 01:42 33.90955 -81.00642 27894 ft 418 kts 225°
2026-04-30 01:42 33.88666 -81.02721 27866 ft 418 kts 225°
2026-04-30 01:43 33.86331 -81.04843 27879 ft 422 kts 225°
2026-04-30 01:43 33.83822 -81.06724 27875 ft 435 kts 213°
2026-04-30 01:43 33.80919 -81.07917 27880 ft 446 kts 203°
2026-04-30 01:43 33.77875 -81.08714 27883 ft 450 kts 199°
2026-04-30 01:44 33.74775 -81.09354 27894 ft 453 kts 198°
2026-04-30 01:44 33.71667 -81.09944 27895 ft 452 kts 198°
2026-04-30 01:44 33.68571 -81.10592 27897 ft 450 kts 199°
2026-04-30 01:44 33.65507 -81.11342 27898 ft 449 kts 201°
2026-04-30 01:45 33.62467 -81.12172 27873 ft 447 kts 201°
2026-04-30 01:45 33.59438 -81.13045 27880 ft 448 kts 202°
2026-04-30 01:45 33.56412 -81.13925 27880 ft 448 kts 202°
2026-04-30 01:45 33.53385 -81.14796 27880 ft 448 kts 201°
2026-04-30 01:46 33.50348 -81.15655 27880 ft 448 kts 201°
2026-04-30 01:46 33.47311 -81.16501 27880 ft 448 kts 201°
2026-04-30 01:46 33.44277 -81.17341 27878 ft 448 kts 201°
2026-04-30 01:46 33.41238 -81.18180 27877 ft 448 kts 201°
2026-04-30 01:47 33.38203 -81.19018 27893 ft 448 kts 201°
2026-04-30 01:47 33.35166 -81.19857 27896 ft 449 kts 201°
2026-04-30 01:47 33.32118 -81.20703 27899 ft 449 kts 201°
2026-04-30 01:47 33.29078 -81.21546 27900 ft 449 kts 201°
2026-04-30 01:48 33.26036 -81.22389 27905 ft 449 kts 201°
2026-04-30 01:48 33.22992 -81.23231 27906 ft 449 kts 201°
2026-04-30 01:48 33.19948 -81.24072 27905 ft 449 kts 201°
2026-04-30 01:48 33.16907 -81.24912 27904 ft 449 kts 201°
2026-04-30 01:49 33.13861 -81.25752 27902 ft 449 kts 201°
2026-04-30 01:49 33.10823 -81.26590 27759 ft 449 kts 201°
2026-04-30 01:49 33.07779 -81.27428 27553 ft 447 kts 201°
2026-04-30 01:49 33.04755 -81.28257 27251 ft 444 kts 201°
2026-04-30 01:50 33.01756 -81.29079 26972 ft 441 kts 201°
2026-04-30 01:50 32.98708 -81.29662 26619 ft 447 kts 193°
2026-04-30 01:50 32.95590 -81.29869 25880 ft 448 kts 188°
2026-04-30 01:50 32.92484 -81.29802 25176 ft 446 kts 184°
2026-04-30 01:51 32.89399 -81.29499 24483 ft 442 kts 180°
2026-04-30 01:51 32.86360 -81.29064 23802 ft 438 kts 179°
2026-04-30 01:51 32.83362 -81.28593 23050 ft 431 kts 178°
2026-04-30 01:51 32.81361 -81.28286 22516 ft 427 kts 179°
2026-04-30 01:52 32.78461 -81.27870 21747 ft 424 kts 179°
2026-04-30 01:52 32.74565 -81.27359 20638 ft 418 kts 179°
2026-04-30 01:52 32.72678 -81.27122 20012 ft 404 kts 179°
2026-04-30 01:52 32.69942 -81.26780 19092 ft 388 kts 179°
2026-04-30 01:53 32.67279 -81.26453 18187 ft 381 kts 179°
2026-04-30 01:53 32.64664 -81.26134 17173 ft 376 kts 178°
2026-04-30 01:53 32.62076 -81.25817 16195 ft 371 kts 178°
2026-04-30 01:53 32.59529 -81.25502 15244 ft 366 kts 178°
2026-04-30 01:54 32.57011 -81.25188 14320 ft 362 kts 177°
2026-04-30 01:54 32.54514 -81.24877 13384 ft 359 kts 177°
2026-04-30 01:54 32.52045 -81.24567 12406 ft 354 kts 177°
2026-04-30 01:54 32.49612 -81.24262 11460 ft 349 kts 177°
2026-04-30 01:55 32.47222 -81.23962 10908 ft 340 kts 177°
2026-04-30 01:55 32.44861 -81.23668 10882 ft 342 kts 177°
2026-04-30 01:55 32.42496 -81.23374 11025 ft 343 kts 177°
2026-04-30 01:55 32.40114 -81.23079 11356 ft 345 kts 177°
2026-04-30 01:56 32.37721 -81.22782 11755 ft 349 kts 177°
2026-04-30 01:56 32.35293 -81.22481 11527 ft 349 kts 177°
2026-04-30 01:56 32.32884 -81.22180 11329 ft 347 kts 177°
2026-04-30 01:56 32.30490 -81.21880 11109 ft 345 kts 177°
2026-04-30 01:57 32.28102 -81.21582 10480 ft 342 kts 177°
2026-04-30 01:57 32.25802 -81.21291 9856 ft 323 kts 177°
2026-04-30 01:57 32.23622 -81.21015 9167 ft 309 kts 178°
2026-04-30 01:57 32.21537 -81.20755 8485 ft 301 kts 178°
2026-04-30 01:58 32.19472 -81.20500 7815 ft 296 kts 178°
2026-04-30 01:58 32.17446 -81.20247 7162 ft 290 kts 178°
2026-04-30 01:58 32.15471 -81.19846 6510 ft 289 kts 164°
2026-04-30 01:58 32.13819 -81.18506 5841 ft 295 kts 132°
2026-04-30 01:59 32.13157 -81.13950 4536 ft 292 kts 66°
2026-04-30 01:59 32.14178 -81.11921 3892 ft 286 kts 50°
2026-04-30 01:59 32.15393 -81.10087 3263 ft 283 kts 56°
2026-04-30 02:00 32.16212 -81.07997 2609 ft 278 kts 70°
2026-04-30 02:00 32.16770 -81.05840 2025 ft 270 kts 74°
2026-04-30 02:00 32.17187 -81.03803 1989 ft 242 kts 76°
2026-04-30 02:00 32.17529 -81.01946 1982 ft 225 kts 77°
2026-04-30 02:01 32.17846 -81.00144 1982 ft 224 kts 77°
2026-04-30 02:01 32.18156 -80.98339 1973 ft 225 kts 77°
2026-04-30 02:01 32.18461 -80.96541 1979 ft 222 kts 78°
2026-04-30 02:01 32.18761 -80.94754 2006 ft 223 kts 78°
2026-04-30 02:02 32.19063 -80.92951 2001 ft 225 kts 78°
2026-04-30 02:02 32.19364 -80.91138 2026 ft 225 kts 78°
2026-04-30 02:02 32.19662 -80.89338 2024 ft 225 kts 77°
2026-04-30 02:02 32.19958 -80.87550 2032 ft 221 kts 78°
2026-04-30 02:03 32.20255 -80.85754 2032 ft 221 kts 78°
2026-04-30 02:03 32.20550 -80.83969 2035 ft 222 kts 78°
2026-04-30 02:03 32.20845 -80.82183 2040 ft 221 kts 78°
2026-04-30 02:03 32.21131 -80.80446 2028 ft 202 kts 78°
2026-04-30 02:04 32.21397 -80.78821 2027 ft 202 kts 78°
2026-04-30 02:04 32.21667 -80.77188 2017 ft 206 kts 78°
2026-04-30 02:04 32.21922 -80.75637 1822 ft 191 kts 78°
2026-04-30 02:04 32.22188 -80.74039 1055 ft 203 kts 80°
2026-04-30 02:05 32.22447 -80.72474 844 ft 178 kts 80°
2026-04-30 02:05 32.22608 -80.71174 819 ft 148 kts 87°
2026-04-30 02:05 32.22697 -80.70000 692 ft 139 kts 89°
2026-04-30 02:05 32.22751 -80.68865 513 ft 139 kts 92°
2026-04-30 02:06 32.23195 -80.67925 485 ft 141 kts 18°
2026-04-30 02:06 32.24175 -80.68061 518 ft 146 kts 310°
2026-04-30 02:06 32.24159 -80.68999 406 ft 137 kts 198°
2026-04-30 02:06 32.23198 -80.69310 122 ft 139 kts 208°
2026-04-30 02:07 32.22466 -80.69731 34 ft 78 kts 206°
2026-04-30 02:07 32.22089 -80.69946 33 ft 62 kts 204°
2026-04-30 02:07 32.21898 -80.70009 35 ft 16 kts 134°
2026-04-30 02:07 32.21907 -80.69946 35 ft 11 kts 30°
2026-04-30 02:08 32.22007 -80.69889 34 ft 20 kts 26°
2026-04-30 02:08 32.22153 -80.69804 33 ft 26 kts 25°
2026-04-30 02:08 32.22307 -80.69716 33 ft 22 kts 27°
2026-04-30 02:08 32.22351 -80.69603 32 ft 11 kts 80°
2026-04-30 02:09 32.22379 -80.69595 32 ft 9 kts 318°
2026-04-30 02:09 32.22387 -80.69608 32 ft 0 kts 299°